This is the latest recevied weather packets stored in our database for station/object K1WJY. If no packets are shown the sender has not sent any weather packets the latest 10 day(s).
| Time | Temp. | Humidity | Pressure | Rain* | Wind** | Luminosity | Snow |
|---|---|---|---|---|---|---|---|
| 1777326416 | 10.56° C | 74% | 1027.3 hPa | 0 mm | - | 167 W/m² | - |
| 1777326115 | 11.11° C | 73% | 1027.4 hPa | 0 mm | - | 180 W/m² | - |
| 1777325812 | 11.11° C | 73% | 1027.3 hPa | 0 mm | - | 198 W/m² | - |
| 1777325510 | 11.11° C | 74% | 1027.2 hPa | 0 mm | - | 212 W/m² | - |
| 1777325208 | 11.11° C | 73% | 1027.2 hPa | 0 mm | - | 229 W/m² | - |
| 1777324904 | 11.67° C | 73% | 1027.2 hPa | 0 mm | - | 239 W/m² | - |
| 1777324602 | 11.67° C | 72% | 1027.4 hPa | 0 mm | - | 258 W/m² | - |
| 1777324299 | 11.67° C | 71% | 1027.2 hPa | 0 mm | - | 276 W/m² | - |
| 1777323996 | 12.22° C | 70% | 1027.3 hPa | 0 mm | - | 285 W/m² | - |
| 1777323694 | 12.22° C | 70% | 1027 hPa | 0 mm | - | 298 W/m² | - |
| 1777323391 | 12.78° C | 68% | 1027.2 hPa | 0 mm | - | 319 W/m² | - |
| 1777323089 | 13.33° C | 67% | 1026.9 hPa | 0 mm | - | 327 W/m² | - |
| 1777322787 | 13.33° C | 68% | 1027.1 hPa | 0 mm | - | 340 W/m² | - |
| 1777322484 | 13.33° C | 67% | 1026.9 hPa | 0 mm | - | 359 W/m² | - |
| 1777322181 | 13.89° C | 65% | 1026.8 hPa | 0 mm | - | 372 W/m² | - |
| 1777321878 | 13.89° C | 65% | 1027.1 hPa | 0 mm | - | 379 W/m² | - |
| 1777321574 | 13.89° C | 64% | 1026.8 hPa | 0 mm | - | 394 W/m² | - |
| 1777321272 | 14.44° C | 63% | 1026.7 hPa | 0 mm | - | 414 W/m² | - |
| 1777320969 | 14.44° C | 61% | 1026.8 hPa | 0 mm | - | 426 W/m² | - |
| 1777320667 | 13.89° C | 63% | 1026.8 hPa | 0 mm | - | 436 W/m² | - |
| 1777320363 | 14.44° C | 62% | 1026.7 hPa | 0 mm | - | 455 W/m² | - |
| 1777320060 | 14.44° C | 62% | 1026.5 hPa | 0 mm | - | 473 W/m² | - |
| 1777319757 | 14.44° C | 61% | 1026.3 hPa | 0 mm | - | 463 W/m² | - |
| 1777319454 | 15° C | 62% | 1026.5 hPa | 0 mm | - | 481 W/m² | - |
| 1777319151 | 14.44° C | 61% | 1026.5 hPa | 0 mm | - | 489 W/m² | - |
* Rain latest hour (hover to see other rain measurements)
** Current wind speed in m/s (hover to see current wind gust speed)